This demonstration page uses our WeatherBlox Daily Observations layout. Learn more.

Left ArrowRight Arrow

40.97296, -117.73568

Hourly Observations for January 11, 2022

Temp ( °F °C ) Dew Point ( °F °C ) Humidity (%) Winds ( mph kmh ) Pressure ( in mb ) Visibility ( mi km ) Precip ( " mm )
12:56 am 00:56 Clear 27 -2.8 24 -4.4 89 89 SSE 5 7 30.55 1035 10 16 0.00 0.00
1:56 am 01:56 Clear 27 -2.8 24 -4.4 89 89 E 5 7 30.55 1035 10 16 0.00 0.00
2:56 am 02:56 Clear 25 -3.9 22 -5.6 88 88 SW 3 6 30.58 1036 10 16 0.00 0.00
3:56 am 03:56 Clear 26 -3.3 22 -5.6 84 84 NNE 3 6 30.57 1035 10 16 0.00 0.00
4:56 am 04:56 Clear 26 -3.3 22 -5.6 84 84 SE 5 7 30.55 1035 10 16 0.00 0.00
5:56 am 05:56 Clear 27 -2.8 24 -4.4 89 89 Calm 30.59 1036 10 16 0.00 0.00
6:56 am 06:56 Clear 26 -3.3 24 -4.4 92 92 Calm 30.60 1036 10 16 0.00 0.00
7:56 am 07:56 Sunny 29 -1.7 23 -5 78 78 ENE 7 11 30.58 1035 10 16 0.00 0.00
8:56 am 08:56 Sunny 35 1.7 26 -3.3 70 70 E 3 6 30.58 1036 10 16 0.00 0.00
9:56 am 09:56 Sunny 38 3.3 26 -3.3 62 62 Calm 30.58 1036 10 16 0.00 0.00
10:56 am 10:56 Partly Cloudy 40 4.4 28 -2.2 63 63 Calm 30.58 1035 10 16 0.00 0.00
11:56 am 11:56 Mostly Sunny 41 5 27 -2.8 57 57 Calm 30.54 1034 10 16 0.00 0.00
12:56 pm 12:56 Sunny 42 5.6 28 -2.2 58 58 ENE 5 7 30.51 1033 10 16 0.00 0.00
1:56 pm 13:56 Mostly Sunny 45 7.2 28 -2.2 52 52 Calm 30.50 1033 10 16 0.00 0.00
2:56 pm 14:56 Sunny 45 7.2 28 -2.2 52 52 NNW 3 6 30.50 1033 10 16 0.00 0.00
3:56 pm 15:56 Sunny 43 6.1 28 -2.2 56 56 ENE 5 7 30.49 1032 10 16 0.00 0.00
4:56 pm 16:56 Clear 38 3.3 28 -2.2 68 68 Calm 30.50 1033 10 16 0.00 0.00
5:56 pm 17:56 Clear 33 0.6 26 -3.3 75 75 WSW 5 7 30.54 1034 10 16 0.00 0.00
6:56 pm 18:56 Clear 33 0.6 28 -2.2 82 82 ESE 7 11 30.54 1034 10 16 0.00 0.00
7:56 pm 19:56 Clear 34 1.1 29 -1.7 82 82 SSE 6 9 30.53 1034 10 16 0.00 0.00
8:56 pm 20:56 Clear 33 0.6 27 -2.8 78 78 Calm 30.53 1034 10 16 0.00 0.00
9:56 pm 21:56 Clear 30 -1.1 27 -2.8 88 88 ESE 5 7 30.53 1034 10 16 0.00 0.00
10:56 pm 22:56 Clear 31 -0.6 27 -2.8 85 85 ESE 3 6 30.51 1033 10 16 0.00 0.00
11:56 pm 23:56 Clear 29 -1.7 26 -3.3 89 89 NNE 3 6 30.54 1034 10 16 0.00 0.00

Powered by AerisWeather